Terug naar catalogus

COSMOS 397 DEB

ActiefLEO
NORAD 5156·DEBRIS·🇷🇺 Russia

Gelanceerd Feb 25, 1971 vanaf Baikonur Cosmodrome

Loading…

Volgende Passages (komende 24 uur)

TLE

VersSource: Space-Track

Epoch: Sep 14, 2026, 08:48 UTC

1 05156U 71015AK  26257.36668935  .00002266  00000-0  61491-3 0  9999
2 05156  65.6788 280.5106 0635947 331.5110  25.2506 13.70396314677657

Volg COSMOS 397 DEB in realtime met AllMySat

Download on the App Store